Location: Newark
(46.9000°N, 28.3500°E)
Time: 04:41:11
(UTC+00:00)

Explorer 7 - Pass Details

Date: 30 August 2019
Orbit: 485 x 680 km, 50.3° (Epoch: 22 September)

Event Time Altitude Azimuth Distance (km) Brightness Sun altitude
Rises 11:51:31 0° 284° (WNW) 2,903 10.7 46.1°
Reaches altitude 10° 11:54:56 10° 259° (WSW) 1,945 10.3 45.7°
Maximum altitude 11:57:06 13° 229° (SW) 1,697 10.4 45.5°
Drops below altitude 10° 11:59:12 10° 200° (SSW) 1,877 10.5 45.3°
Sets 12:02:24 0° 173° (S) 2,719 10.8 44.9°
